Temp
46 46 45 44 44 44 43 42 43 42 42 42 41 41 41 41 41 39 39 38 37 37 37 36 36 36 35 36 35 35 34 34 34 34 34 33 33 32 31 32 32 32
45 45 44 44 43 43 43 42 42 41 41 40 40 40 40 39 39 38 36 36 36 35 36 35 35 35 34 34 34 33 33 33 32 34 32 32 32 32 31 31 31 32
44 43 42 41 41 41 41 41 40 40 39 39 39 39 37 38 36 36 36 35 34 34 34 34 34 34 33 33 33 32 32 32 31 32 32 31 32 31 31 32 31 31
43 42 41 41 41 40 40 39 38 38 38 36 37 37 36 35 35 34 34 34 33 33 33 33 33 33 33 32 32 31 31 31 32 32 31 31 31 31 30 31 31 30
41 40 40 39 40 39 38 37 36 36 36 36 37 36 36 35 34 33 33 33 33 32 33 32 33 32 32 31 31 30 30 30 31 30 30 29 30 30 30 30 29 29
40 40 39 38 38 37 37 36 36 36 36 35 35 36 35 34 34 33 33 32 32 32 32 32 31 31 31 30 30 29 29 29 29 29 28 27 28 29 28 28 28 27
38 38 37 37 37 36 36 36 36 35 35 35 35 34 34 33 33 32 32 32 31 31 30 30 30 29 30 29 28 28 28 28 28 27 26 26 27 26 27 27 27 26
38 37 37 36 35 35 35 35 35 35 34 34 33 33 34 33 32 32 32 31 30 29 29 29 29 28 28 28 27 27 27 27 27 26 26 25 26 25 26 26 26 25
37 36 36 35 34 34 34 34 34 34 34 33 33 33 33 32 32 31 30 30 29 28 28 28 28 28 28 27 27 26 26 26 26 26 25 24 24 24 24 25 25 24
36 36 35 34 34 34 34 34 34 33 33 32 32 32 31 32 31 30 29 28 27 27 27 27 27 27 27 27 26 25 25 25 25 25 25 24 24 24 24 24 24 23
36 35 34 34 33 34 34 34 33 33 33 31 31 30 30 30 29 29 28 27 26 26 26 26 26 26 26 26 26 26 25 25 25 25 24 24 24 24 24 24 24 23
35 35 34 33 33 34 33 33 32 32 31 31 30 29 29 28 27 27 27 26 26 26 26 26 26 26 25 25 25 25 25 25 25 25 25 24 24 24 24 24 24 25
34 34 34 34 33 33 33 32 31 31 30 29 29 28 27 26 26 26 26 25 25 25 25 25 25 25 25 25 25 25 25 25 24 24 24 24 24 24 24 24 23 22
34 34 34 34 33 32 32 31 30 30 28 28 27 25 25 24 24 24 24 24 24 24 24 25 24 24 25 25 25 25 25 24 23 23 23 23 23 23 23 23 23 23
34 34 33 32 31 30 29 28 28 27 27 26 25 24 24 23 23 23 22 22 23 23 24 24 24 24 24 24 24 24 23 23 23 23 22 22 22 22 23 23 23 23
33 32 31 30 29 28 28 27 26 25 24 22 21 22 22 22 22 21 21 21 21 23 24 24 24 24 24 25 25 23 23 23 23 23 22 22 22 22 23 24 24 24
30 29 29 27 27 27 24 24 23 22 21 20 19 19 19 19 19 19 20 21 22 22 22 22 23 23 24 25 25 26 24 23 22 22 23 23 23 22 22 23 24 25
29 27 26 25 24 22 20 19 19 18 17 16 16 16 16 18 18 19 20 21 21 22 21 21 22 23 24 24 25 25 25 23 23 22 22 23 23 23 23 24 24 24
27 24 23 21 20 19 17 15 15 14 14 13 13 15 16 16 17 18 19 20 20 19 19 20 20 22 23 24 24 25 25 25 23 23 23 23 23 23 23 23 23 24
24 21 20 19 17 16 15 13 12 12 13 14 14 14 14 15 16 16 17 17 18 18 18 18 19 20 22 23 24 25 26 26 23 23 23 23 23 23 23 23 23 23
20 19 17 16 14 13 13 12 12 12 12 13 13 14 14 14 14 14 15 15 15 15 16 15 16 19 21 23 24 25 26 26 23 23 22 22 23 23 23 23 24 24
18 16 15 14 12 11 11 11 11 11 11 13 14 15 15 15 14 14 13 12 13 13 13 13 15 19 21 22 24 25 26 23 22 21 21 22 23 23 23 24 24 24
17 15 13 12 11 10 10 10 10 11 11 13 12 13 13 13 12 12 13 12 12 12 11 12 13 17 20 22 23 24 24 21 21 21 21 21 22 23 23 24 24 25
16 14 12 11 11 10 10 10 11 12 11 13 12 11 12 12 12 12 12 12 12 11 12 11 12 16 20 22 23 24 24 21 21 20 20 20 21 23 24 24 25 26
13 13 12 11 10 10 10 10 10 10 12 12 11 11 11 11 11 11 11 12 12 12 14 14 13 16 20 21 23 24 23 21 20 20 19 19 20 21 23 23 24 24
13 11 11 10 9 9 9 9 10 10 10 10 10 11 10 12 12 11 9 10 11 12 13 14 15 15 18 22 23 23 24 21 21 19 18 19 20 20 20 21 22 22
MSLP
1015.71 1016.07 1016.47 1016.83 1017.19 1017.47 1017.87 1018.27 1018.51 1018.83 1019.11 1019.35 1019.55 1019.71 1019.87 1019.95 1020.11 1020.27 1020.47 1020.67 1020.79 1020.83 1020.79 1020.83 1020.83 1020.79 1020.71 1020.63 1020.55 1020.43 1020.31 1020.15 1019.91 1019.75 1019.59 1019.59 1019.47 1019.35 1019.19 1019.15 1019.07 1018.91
1015.39 1015.79 1016.23 1016.59 1016.99 1017.35 1017.71 1018.07 1018.43 1018.71 1019.03 1019.27 1019.43 1019.63 1019.75 1019.87 1020.03 1020.23 1020.43 1020.63 1020.71 1020.71 1020.67 1020.67 1020.67 1020.59 1020.51 1020.47 1020.35 1020.27 1020.11 1019.91 1019.71 1019.55 1019.47 1019.39 1019.27 1019.19 1018.99 1018.91 1018.75 1018.59
1015.07 1015.55 1015.99 1016.35 1016.67 1017.15 1017.63 1018.03 1018.39 1018.71 1018.95 1019.15 1019.39 1019.59 1019.71 1019.83 1020.03 1020.19 1020.35 1020.55 1020.63 1020.55 1020.51 1020.51 1020.43 1020.35 1020.27 1020.23 1020.15 1020.07 1019.83 1019.63 1019.51 1019.31 1019.27 1019.11 1019.03 1018.91 1018.71 1018.59 1018.35 1018.15
1014.75 1015.27 1015.75 1016.19 1016.55 1017.03 1017.51 1017.95 1018.31 1018.63 1018.87 1019.15 1019.27 1019.43 1019.63 1019.75 1019.91 1020.11 1020.27 1020.39 1020.43 1020.39 1020.35 1020.27 1020.19 1020.11 1020.03 1019.95 1019.87 1019.75 1019.55 1019.39 1019.23 1019.19 1019.11 1018.91 1018.83 1018.75 1018.55 1018.39 1018.07 1017.83
1014.43 1015.07 1015.59 1016.03 1016.47 1016.91 1017.35 1017.75 1018.07 1018.31 1018.55 1018.79 1018.99 1019.19 1019.31 1019.51 1019.75 1019.91 1020.03 1020.07 1020.11 1020.11 1020.07 1019.99 1019.91 1019.79 1019.75 1019.71 1019.63 1019.51 1019.31 1019.15 1019.03 1019.07 1018.95 1018.83 1018.67 1018.63 1018.35 1018.15 1017.83 1017.55
1014.31 1014.79 1015.27 1015.75 1016.23 1016.71 1017.11 1017.47 1017.75 1018.03 1018.27 1018.55 1018.71 1018.91 1019.07 1019.27 1019.43 1019.63 1019.75 1019.83 1019.87 1019.87 1019.87 1019.79 1019.67 1019.55 1019.51 1019.47 1019.43 1019.27 1019.15 1019.03 1018.91 1018.95 1018.91 1018.75 1018.59 1018.43 1018.19 1017.95 1017.71 1017.39
1013.91 1014.47 1014.99 1015.47 1015.99 1016.39 1016.83 1017.15 1017.47 1017.71 1017.95 1018.19 1018.43 1018.63 1018.79 1018.99 1019.23 1019.39 1019.55 1019.63 1019.71 1019.71 1019.71 1019.59 1019.43 1019.39 1019.31 1019.27 1019.19 1019.07 1018.99 1018.91 1018.87 1018.83 1018.75 1018.55 1018.31 1018.03 1017.95 1017.75 1017.47 1017.15
1013.63 1014.19 1014.71 1015.19 1015.67 1016.11 1016.51 1016.83 1017.11 1017.39 1017.67 1017.99 1018.19 1018.35 1018.55 1018.79 1018.99 1019.19 1019.31 1019.43 1019.51 1019.55 1019.47 1019.31 1019.19 1019.15 1019.07 1019.03 1018.91 1018.83 1018.75 1018.71 1018.63 1018.59 1018.43 1018.23 1018.03 1017.75 1017.51 1017.39 1017.11 1016.87
1013.43 1013.99 1014.51 1014.99 1015.43 1015.79 1016.23 1016.55 1016.83 1017.11 1017.35 1017.59 1017.79 1018.03 1018.27 1018.55 1018.79 1018.95 1019.15 1019.27 1019.35 1019.27 1019.19 1019.03 1018.95 1018.87 1018.75 1018.71 1018.59 1018.55 1018.51 1018.47 1018.35 1018.27 1018.11 1017.87 1017.71 1017.43 1017.27 1017.07 1016.83 1016.55
1013.19 1013.75 1014.31 1014.71 1015.19 1015.51 1015.91 1016.27 1016.55 1016.79 1017.03 1017.31 1017.55 1017.83 1018.03 1018.31 1018.59 1018.83 1018.99 1019.07 1019.07 1018.99 1018.83 1018.71 1018.63 1018.55 1018.47 1018.43 1018.39 1018.35 1018.31 1018.15 1018.03 1017.91 1017.75 1017.55 1017.31 1017.11 1016.95 1016.75 1016.47 1016.23
1012.87 1013.43 1013.95 1014.43 1014.87 1015.19 1015.59 1015.95 1016.27 1016.59 1016.83 1017.15 1017.39 1017.63 1017.91 1018.19 1018.43 1018.59 1018.71 1018.75 1018.75 1018.59 1018.51 1018.39 1018.31 1018.27 1018.23 1018.19 1018.11 1018.03 1017.95 1017.83 1017.67 1017.51 1017.31 1017.11 1016.91 1016.71 1016.47 1016.27 1015.95 1015.75
1012.51 1013.03 1013.63 1014.11 1014.51 1014.87 1015.31 1015.71 1016.11 1016.43 1016.67 1016.99 1017.35 1017.63 1017.87 1018.03 1018.23 1018.35 1018.43 1018.51 1018.39 1018.31 1018.23 1018.11 1018.03 1018.03 1017.95 1017.87 1017.79 1017.71 1017.59 1017.43 1017.23 1017.03 1016.87 1016.63 1016.43 1016.23 1016.03 1015.83 1015.51 1015.07
1012.11 1012.63 1013.27 1013.79 1014.27 1014.71 1015.15 1015.59 1015.95 1016.27 1016.59 1016.95 1017.23 1017.59 1017.75 1017.87 1017.95 1018.11 1018.19 1018.23 1018.11 1018.03 1017.91 1017.83 1017.79 1017.71 1017.63 1017.51 1017.39 1017.27 1017.15 1017.07 1016.91 1016.75 1016.55 1016.31 1015.99 1015.79 1015.63 1015.43 1015.27 1015.11
1011.75 1012.31 1012.87 1013.43 1014.03 1014.55 1014.99 1015.39 1015.79 1016.15 1016.59 1016.95 1017.31 1017.55 1017.63 1017.71 1017.79 1017.91 1017.91 1017.87 1017.79 1017.75 1017.59 1017.51 1017.47 1017.39 1017.31 1017.19 1017.03 1016.91 1016.83 1016.75 1016.71 1016.51 1016.23 1015.99 1015.67 1015.43 1015.15 1014.91 1014.59 1014.19
1011.31 1011.99 1012.63 1013.23 1013.83 1014.35 1014.83 1015.27 1015.67 1016.07 1016.51 1016.91 1017.23 1017.39 1017.47 1017.51 1017.59 1017.67 1017.75 1017.67 1017.51 1017.39 1017.23 1017.11 1017.03 1016.99 1016.99 1016.95 1016.87 1016.79 1016.71 1016.59 1016.35 1016.11 1015.79 1015.43 1015.07 1014.71 1014.43 1014.11 1013.67 1013.27
1011.15 1011.91 1012.55 1013.19 1013.75 1014.19 1014.59 1015.03 1015.51 1015.99 1016.47 1016.95 1017.19 1017.27 1017.35 1017.39 1017.47 1017.47 1017.43 1017.35 1017.23 1016.99 1016.83 1016.75 1016.75 1016.67 1016.59 1016.55 1016.55 1016.47 1016.31 1016.07 1015.83 1015.51 1015.23 1014.91 1014.47 1014.03 1013.55 1013.19 1012.83 1012.43
1011.19 1011.95 1012.55 1013.19 1013.67 1014.11 1014.59 1015.03 1015.51 1016.07 1016.55 1016.91 1017.15 1017.31 1017.35 1017.39 1017.43 1017.35 1017.11 1016.95 1016.79 1016.67 1016.59 1016.55 1016.47 1016.39 1016.31 1016.19 1016.11 1015.99 1015.83 1015.55 1015.31 1014.91 1014.55 1014.15 1013.79 1013.27 1012.71 1012.35 1011.91 1011.55
1011.03 1011.83 1012.51 1013.07 1013.63 1014.19 1014.75 1015.31 1015.79 1016.27 1016.71 1016.99 1017.23 1017.31 1017.31 1017.27 1017.19 1016.95 1016.83 1016.67 1016.55 1016.47 1016.43 1016.35 1016.23 1016.07 1015.95 1015.87 1015.75 1015.59 1015.43 1015.11 1014.71 1014.31 1013.87 1013.51 1013.07 1012.63 1012.19 1011.71 1011.23 1010.79
1010.67 1011.51 1012.23 1012.91 1013.55 1014.19 1014.83 1015.47 1015.99 1016.47 1016.79 1017.03 1017.23 1017.15 1017.11 1017.07 1016.87 1016.71 1016.63 1016.55 1016.51 1016.47 1016.39 1016.27 1016.11 1015.91 1015.79 1015.59 1015.43 1015.15 1014.83 1014.51 1014.11 1013.71 1013.31 1012.87 1012.51 1012.23 1011.79 1011.35 1010.79 1010.11
1010.47 1011.31 1012.07 1012.83 1013.55 1014.27 1014.87 1015.43 1015.95 1016.27 1016.47 1016.71 1016.83 1016.87 1016.87 1016.79 1016.59 1016.63 1016.63 1016.59 1016.51 1016.43 1016.35 1016.19 1015.95 1015.75 1015.59 1015.35 1015.03 1014.67 1014.31 1013.95 1013.51 1013.15 1012.83 1012.47 1012.23 1011.83 1011.35 1010.83 1010.39 1009.95
1010.59 1011.39 1012.19 1012.99 1013.75 1014.35 1014.83 1015.35 1015.71 1016.03 1016.23 1016.39 1016.47 1016.51 1016.47 1016.47 1016.39 1016.51 1016.51 1016.55 1016.59 1016.51 1016.39 1016.23 1015.91 1015.63 1015.35 1015.03 1014.67 1014.31 1013.83 1013.43 1013.11 1012.83 1012.47 1012.03 1011.63 1011.27 1010.87 1010.35 1009.91 1009.31
1010.43 1011.31 1012.19 1012.99 1013.71 1014.31 1014.83 1015.23 1015.55 1015.75 1015.99 1015.99 1016.03 1016.03 1016.07 1016.11 1016.19 1016.27 1016.43 1016.51 1016.51 1016.47 1016.35 1016.07 1015.71 1015.31 1015.07 1014.75 1014.39 1013.95 1013.47 1013.19 1012.91 1012.47 1011.99 1011.55 1011.03 1010.75 1010.19 1009.75 1009.27 1008.79
1010.15 1010.91 1011.79 1012.63 1013.27 1013.95 1014.47 1014.83 1015.15 1015.43 1015.71 1015.71 1015.87 1015.87 1015.91 1015.91 1016.03 1016.19 1016.23 1016.23 1016.23 1016.23 1016.15 1015.87 1015.55 1015.19 1014.83 1014.47 1014.07 1013.67 1013.23 1012.91 1012.51 1012.07 1011.59 1011.11 1010.63 1010.07 1009.63 1008.99 1008.55 1008.07
1009.99 1010.75 1011.51 1012.19 1012.87 1013.39 1013.83 1014.27 1014.67 1014.99 1015.27 1015.27 1015.47 1015.67 1015.63 1015.63 1015.87 1016.03 1015.95 1015.87 1015.87 1015.87 1015.79 1015.71 1015.43 1015.03 1014.59 1014.19 1013.83 1013.43 1013.07 1012.71 1012.27 1011.79 1011.11 1010.63 1009.87 1009.31 1008.87 1008.31 1007.75 1007.31
1009.99 1010.55 1011.15 1011.83 1012.55 1013.07 1013.51 1013.91 1014.27 1014.55 1014.71 1014.99 1015.35 1015.43 1015.55 1015.63 1015.79 1015.75 1015.59 1015.55 1015.51 1015.51 1015.39 1015.19 1014.95 1014.63 1014.31 1013.99 1013.63 1013.23 1012.87 1012.51 1012.07 1011.51 1010.83 1010.03 1009.43 1008.63 1008.11 1007.67 1007.19 1006.91
1010.15 1010.75 1011.27 1011.71 1012.27 1012.91 1013.51 1013.95 1014.11 1014.39 1014.63 1014.95 1015.23 1015.27 1015.35 1015.35 1015.43 1015.39 1015.43 1015.39 1015.23 1015.11 1014.91 1014.63 1014.47 1014.27 1014.07 1013.71 1013.35 1013.03 1012.67 1012.27 1011.79 1011.35 1010.55 1009.67 1009.07 1008.47 1007.71 1007.03 1006.75 1006.35
Wind_Speed
11 9 9 8 7 7 7 7 6 6 5 5 5 5 5 4 4 4 5 5 6 7 7 7 8 8 8 8 8 8 8 9 9 8 9 9 10 11 11 12 13 12
12 10 8 8 7 7 6 7 6 6 6 6 5 5 5 4 4 4 5 6 7 7 8 8 8 9 9 8 8 8 8 8 9 7 8 10 10 11 13 14 14 13
12 11 10 10 9 9 8 7 6 6 5 6 5 5 5 4 5 5 5 6 7 7 8 8 9 9 9 8 8 8 8 9 9 9 9 10 10 11 12 12 12 14
13 12 10 10 9 9 8 7 6 6 6 6 6 6 5 4 5 5 6 7 7 8 8 8 9 8 8 8 8 8 8 9 9 9 10 10 10 11 12 11 13 13
13 11 10 9 8 8 8 8 8 7 7 7 6 6 6 6 6 6 7 7 7 8 8 8 8 8 8 7 8 8 8 8 9 9 10 11 11 11 11 11 13 14
11 11 10 10 9 9 9 8 8 8 8 8 7 6 6 6 6 7 7 7 7 7 8 8 8 8 7 7 7 8 8 8 9 10 11 12 12 11 10 12 13 15
13 12 12 10 10 10 9 9 8 8 8 7 6 6 6 6 7 8 8 8 8 8 8 8 8 8 7 7 7 8 8 9 10 11 12 12 12 13 12 13 14 15
13 11 11 10 11 10 10 9 8 8 8 7 7 7 6 7 7 7 7 7 7 8 9 8 8 8 8 7 8 9 10 8 9 11 12 13 12 13 13 12 13 15
12 12 11 12 12 10 10 9 9 8 8 8 7 6 6 7 7 7 7 7 8 9 8 8 8 8 7 7 8 9 10 10 10 11 12 13 13 14 14 13 14 14
13 12 12 12 11 9 11 10 9 8 8 8 7 6 6 6 7 7 7 8 8 9 8 8 8 8 7 8 9 10 11 12 12 12 12 13 14 14 14 13 14 15
13 13 12 12 11 9 11 10 9 8 7 7 7 7 7 6 6 6 7 8 8 8 8 8 7 8 8 9 9 10 11 12 12 12 12 13 14 14 14 14 15 15
14 13 13 13 12 10 11 10 9 8 7 7 7 7 6 6 6 6 6 7 7 7 7 7 7 8 8 9 10 11 11 11 12 12 13 13 13 14 13 13 14 18
13 12 12 11 11 9 9 8 8 8 7 7 6 6 6 6 6 7 7 7 7 7 7 7 8 8 9 10 10 11 11 12 12 12 12 12 12 15 16 17 18 18
12 12 11 11 10 9 9 8 7 7 7 6 6 6 7 7 7 7 6 6 6 7 7 7 8 8 9 10 10 10 10 11 11 12 14 15 16 16 16 17 18 19
12 11 10 10 10 10 9 8 8 7 6 6 6 6 5 6 6 6 6 7 7 7 7 7 7 7 7 7 8 9 9 11 12 14 14 16 16 16 18 18 19 20
12 10 11 10 10 10 9 8 8 7 6 6 6 6 6 5 6 6 6 7 7 7 6 6 7 6 9 15 14 11 12 12 13 14 15 15 15 17 17 16 18 16
11 11 10 10 10 8 7 8 7 6 5 5 5 5 6 5 6 7 6 6 6 6 6 6 7 7 13 15 16 19 15 14 13 14 14 14 16 15 16 18 15 19
11 11 10 10 9 7 7 6 5 5 4 5 5 5 5 5 6 6 6 6 5 6 7 7 7 10 15 16 18 19 18 14 13 13 13 14 14 15 16 15 19 16
12 11 10 9 8 8 7 6 6 5 5 5 5 5 5 5 6 5 6 5 5 6 7 7 8 12 15 17 19 20 20 18 13 13 14 14 15 17 16 18 14 19
11 10 9 9 8 8 7 7 6 6 6 5 5 5 5 5 5 5 5 6 6 6 6 7 9 11 16 18 19 21 20 19 13 15 14 15 17 17 16 16 19 19
10 9 9 9 8 8 7 7 7 6 6 5 5 5 5 5 4 5 5 5 5 5 6 7 8 14 16 19 19 20 21 19 13 13 13 16 15 17 18 19 20 21
10 10 9 9 9 8 8 7 7 7 6 6 5 4 4 4 3 4 5 5 6 6 6 7 9 15 17 18 19 20 22 14 12 13 15 14 16 18 18 17 19 18
11 11 10 10 10 9 9 8 8 7 6 5 5 5 4 4 4 5 5 5 5 5 6 7 8 12 16 18 19 20 18 12 13 13 12 15 17 17 17 18 16 15
10 11 11 11 10 10 9 8 7 6 6 5 5 5 4 4 4 4 5 5 5 6 6 7 8 12 17 17 18 19 18 13 13 12 16 16 16 16 15 15 17 29
10 10 10 11 10 9 9 9 8 7 6 5 4 4 4 3 4 4 4 4 4 5 9 9 8 10 15 16 18 19 16 12 12 12 14 14 15 16 15 14 17 19
8 9 9 9 10 9 8 7 6 6 6 5 5 4 4 3 4 3 4 4 4 5 6 6 8 8 10 16 17 18 19 13 11 12 13 16 16 15 15 19 18 14
Wind_Direction
175 174 177 176 181 179 181 185 190 192 201 206 214 222 228 230 227 230 245 256 258 262 265 266 269 269 267 267 266 264 263 265 268 269 270 269 269 269 267 264 261 261
174 173 171 173 174 176 181 182 187 191 202 205 214 225 232 237 238 241 248 253 258 259 263 262 263 264 266 266 266 267 267 268 271 270 271 269 269 269 267 267 266 264
172 170 170 173 174 174 175 174 183 193 199 207 215 223 229 230 239 241 244 248 255 258 260 261 260 262 263 264 267 268 268 271 272 274 273 272 271 270 270 271 269 266
171 170 169 172 168 169 171 173 182 191 199 207 212 216 218 222 228 239 246 247 250 255 257 258 260 264 265 267 269 271 271 272 273 277 275 273 271 270 271 271 270 269
167 166 165 166 165 165 170 180 188 194 200 205 208 210 213 220 227 236 238 244 246 253 257 259 261 262 266 270 271 272 274 276 274 273 272 273 272 269 272 271 271 271
164 164 163 164 167 167 180 185 191 195 199 206 209 209 216 219 227 234 241 244 247 252 257 260 261 262 263 266 270 269 272 274 273 273 271 270 271 269 271 270 270 269
163 163 163 164 166 173 179 186 190 194 200 203 203 210 210 220 225 232 236 239 246 252 253 258 261 265 265 266 266 267 268 269 272 270 268 267 268 269 266 267 267 267
161 161 162 165 167 173 181 184 189 194 194 194 204 208 210 221 226 230 234 240 246 249 252 255 261 260 263 261 262 266 267 265 265 266 266 267 268 268 268 265 265 267
158 162 164 167 170 175 183 186 188 190 188 194 201 205 210 216 222 226 230 236 243 247 251 254 255 259 260 260 263 265 268 267 265 266 266 267 266 267 268 269 269 268
162 163 165 170 173 177 182 185 184 184 188 194 199 206 210 214 218 226 232 236 242 246 248 252 254 257 259 260 263 263 267 267 267 267 267 267 267 268 269 269 268 270
164 164 168 171 174 178 182 181 182 181 185 193 196 206 210 213 221 224 232 236 240 245 251 256 259 262 264 264 264 263 264 267 268 267 266 267 266 266 268 269 270 271
165 166 169 171 174 175 176 176 178 182 185 189 197 206 209 217 223 230 230 239 245 250 256 262 264 264 265 265 266 266 265 267 269 271 272 271 271 272 271 271 276 282
165 166 166 169 171 171 168 172 177 180 184 189 196 201 209 219 225 228 234 238 247 252 257 261 263 265 264 264 265 266 269 271 273 274 273 273 274 278 281 279 278 274
162 161 161 164 163 163 165 169 171 176 182 188 191 204 212 220 224 229 237 239 246 250 257 260 263 264 265 266 268 270 274 275 275 278 281 279 278 273 270 270 266 264
154 155 156 154 157 161 164 169 171 174 177 185 194 206 217 221 228 233 238 244 248 252 257 260 263 263 264 265 269 274 275 279 280 280 280 281 279 275 274 270 267 264
149 148 152 153 158 164 168 167 170 170 175 187 200 212 219 224 231 239 239 245 251 256 261 265 265 263 257 260 267 274 282 283 284 283 283 279 278 279 276 274 275 270
145 148 152 157 161 160 159 162 163 165 176 190 202 216 225 230 234 237 239 242 250 259 269 266 266 265 268 275 279 284 287 289 288 286 282 281 281 280 284 284 283 284
148 148 152 155 154 158 153 152 154 163 177 191 207 218 227 231 237 240 245 252 254 262 264 266 269 270 278 282 288 290 291 291 290 288 287 285 284 286 287 289 290 289
147 149 150 151 153 149 147 146 155 168 183 196 211 218 227 231 237 243 247 253 261 264 268 272 274 278 283 288 294 295 296 297 292 290 289 288 291 290 288 288 288 292
145 144 146 148 144 144 147 152 165 179 186 196 202 213 224 234 238 248 252 254 257 264 271 274 275 280 288 295 299 301 302 302 296 296 293 290 290 290 289 289 289 292
142 142 140 142 142 146 150 159 169 177 187 196 202 210 217 225 234 239 248 250 258 263 268 275 276 283 293 300 303 304 305 307 302 298 294 290 288 291 290 288 289 289
141 143 141 144 146 149 154 164 173 183 187 194 199 209 217 229 241 246 251 249 252 262 267 274 280 290 298 302 304 307 310 310 303 299 295 291 294 292 288 289 289 285
148 145 145 147 149 153 162 170 172 181 187 187 193 206 210 219 229 243 245 249 253 254 264 275 282 291 298 303 306 310 313 310 308 302 296 297 296 295 292 292 289 288
147 145 147 150 156 161 163 164 167 174 178 186 188 200 211 212 229 243 247 246 250 259 266 277 282 287 295 302 308 309 314 312 309 304 302 298 295 294 295 291 293 299
143 148 146 151 152 157 157 161 167 170 168 172 192 204 213 216 227 240 243 256 256 261 271 279 279 284 294 300 306 311 315 312 310 308 300 297 300 300 299 298 302 299
141 140 143 146 147 146 149 157 157 159 165 174 189 198 205 215 223 235 255 266 267 261 262 271 282 285 290 300 307 310 314 312 309 304 305 307 307 306 306 308 304 299